Radiation Dose at Monitoring Post of Fukushima Daini Nuclear Power Station
Date,Time,MP-1(microSv/h),MP-2(microSv/h),MP-3(microSv/h),MP-4(microSv/h),MP-5(microSv/h),MP-6(microSv/h),MP-7(microSv/h),Wind Direction,Wind Velocity(m/s),Rain
2015/06/19,00:00,0.524,0.303,0.548,0.493,0.470,0.244,0.216,east-southeast,3.8,No
2015/06/19,00:10,0.522,0.300,0.550,0.493,0.467,0.243,0.216,east-southeast,3.9,No
2015/06/19,00:20,0.526,0.301,0.545,0.491,0.470,0.243,0.216,east-southeast,3.4,No
2015/06/19,00:30,0.521,0.300,0.553,0.494,0.468,0.242,0.215,east,3.8,No
2015/06/19,00:40,0.526,0.302,0.548,0.491,0.466,0.244,0.217,east,3.0,No
2015/06/19,00:50,0.522,0.301,0.550,0.495,0.469,0.243,0.218,east-southeast,3.9,No
2015/06/19,01:00,0.522,0.301,0.551,0.492,0.463,0.242,0.216,east,3.0,No
2015/06/19,01:10,0.524,0.303,0.547,0.492,0.470,0.244,0.215,east,2.0,No
2015/06/19,01:20,0.520,0.300,0.550,0.493,0.465,0.243,0.214,southeast,1.5,No
2015/06/19,01:30,0.528,0.303,0.544,0.491,0.469,0.243,0.215,east-southeast,1.4,No
2015/06/19,01:40,0.522,0.299,0.551,0.496,0.466,0.242,0.215,-,CALM,No
2015/06/19,01:50,0.524,0.302,0.548,0.490,0.468,0.243,0.216,-,CALM,No
2015/06/19,02:00,0.524,0.300,0.547,0.496,0.470,0.243,0.214,east,1.9,No
2015/06/19,02:10,0.521,0.302,0.551,0.492,0.464,0.243,0.217,east,5.0,No
2015/06/19,02:20,0.527,0.300,0.545,0.493,0.470,0.243,0.216,east,3.8,No
2015/06/19,02:30,0.521,0.300,0.551,0.495,0.467,0.242,0.217,east-southeast,3.5,No
2015/06/19,02:40,0.526,0.302,0.546,0.489,0.468,0.243,0.216,east-southeast,2.8,No
2015/06/19,02:50,0.523,0.300,0.548,0.498,0.468,0.243,0.217,east-southeast,2.3,No
2015/06/19,03:00,0.522,0.302,0.550,0.492,0.466,0.243,0.216,east-southeast,2.3,No
2015/06/19,03:10,0.525,0.299,0.545,0.495,0.469,0.243,0.215,east,3.7,No
2015/06/19,03:20,0.519,0.302,0.552,0.493,0.465,0.242,0.215,east-southeast,4.3,No
2015/06/19,03:30,0.526,0.301,0.547,0.494,0.468,0.244,0.216,east-southeast,5.0,No
2015/06/19,03:40,0.521,0.302,0.551,0.495,0.465,0.242,0.216,east-southeast,4.4,No
2015/06/19,03:50,0.525,0.300,0.550,0.491,0.470,0.244,0.216,east-southeast,4.4,No
2015/06/19,04:00,0.524,0.302,0.546,0.495,0.468,0.243,0.215,east-southeast,4.2,No
2015/06/19,04:10,0.521,0.301,0.549,0.490,0.468,0.242,0.217,east-southeast,3.6,No
2015/06/19,04:20,0.526,0.299,0.543,0.492,0.469,0.244,0.216,east-southeast,3.7,No
2015/06/19,04:30,0.520,0.302,0.552,0.493,0.466,0.242,0.216,east-southeast,2.8,No
2015/06/19,04:40,0.526,0.298,0.548,0.491,0.471,0.242,0.215,east-southeast,3.5,No
2015/06/19,04:50,0.523,0.302,0.547,0.495,0.466,0.241,0.215,east-southeast,3.4,No
2015/06/19,05:00,0.524,0.299,0.549,0.492,0.471,0.244,0.216,east-southeast,3.3,No
2015/06/19,05:10,0.525,0.302,0.544,0.497,0.468,0.244,0.216,east-southeast,2.8,No
2015/06/19,05:20,0.520,0.301,0.552,0.492,0.468,0.243,0.216,southeast,2.4,No
2015/06/19,05:30,0.526,0.302,0.545,0.496,0.468,0.243,0.215,east-southeast,2.8,No
2015/06/19,05:40,0.523,0.303,0.548,0.494,0.466,0.243,0.216,east-southeast,3.4,No
2015/06/19,05:50,0.522,0.298,0.551,0.492,0.470,0.244,0.215,southeast,2.7,No
2015/06/19,06:00,0.527,0.301,0.545,0.496,0.464,0.243,0.216,southeast,3.3,No
2015/06/19,06:10,0.521,0.300,0.552,0.491,0.464,0.242,0.216,east-southeast,5.0,No
2015/06/19,06:20,0.524,0.298,0.548,0.495,0.471,0.244,0.215,east-southeast,4.7,No
2015/06/19,06:30,0.524,0.298,0.545,0.495,0.467,0.242,0.215,east-southeast,4.6,No
2015/06/19,06:40,0.520,0.302,0.550,0.490,0.466,0.242,0.217,east-southeast,3.6,No
2015/06/19,06:50,0.526,0.301,0.548,0.495,0.471,0.242,0.216,east-southeast,4.1,No
2015/06/19,07:00,0.523,0.297,0.548,0.493,0.466,0.242,0.217,east-southeast,3.1,No
2015/06/19,07:10,0.520,0.300,0.550,0.490,0.464,0.242,0.216,east-southeast,2.1,No
2015/06/19,07:20,0.526,0.302,0.546,0.495,0.470,0.241,0.214,east-southeast,3.5,No
2015/06/19,07:30,0.522,0.300,0.548,0.490,0.464,0.243,0.216,east-southeast,4.6,No
2015/06/19,07:40,0.519,0.301,0.551,0.491,0.466,0.243,0.216,east-southeast,6.2,No
2015/06/19,07:50,0.527,0.304,0.546,0.495,0.469,0.242,0.214,east-southeast,7.5,No
2015/06/19,08:00,0.522,0.300,0.548,0.492,0.464,0.242,0.216,east-southeast,6.7,No
2015/06/19,08:10,0.520,0.300,0.552,0.490,0.464,0.242,0.215,east-southeast,6.8,No
2015/06/19,08:20,0.529,0.302,0.544,0.498,0.470,0.242,0.215,east-southeast,6.7,No
2015/06/19,08:30,0.522,0.301,0.550,0.491,0.467,0.244,0.217,east-southeast,6.7,No
2015/06/19,08:40,0.521,0.299,0.548,0.493,0.465,0.242,0.215,east,7.1,No
2015/06/19,08:50,0.527,0.302,0.543,0.496,0.470,0.241,0.215,east,5.9,No
2015/06/19,09:00,0.521,0.301,0.550,0.491,0.468,0.242,0.217,east,6.1,No
2015/06/19,09:10,0.518,0.299,0.549,0.491,0.465,0.241,0.215,east,5.8,No
2015/06/19,09:20,0.526,0.302,0.545,0.496,0.470,0.243,0.215,east,5.3,No
2015/06/19,09:30,0.524,0.301,0.551,0.492,0.468,0.243,0.217,east-southeast,4.2,No
2015/06/19,09:40,0.519,0.299,0.552,0.490,0.464,0.242,0.216,east,5.0,No
2015/06/19,09:50,0.526,0.300,0.547,0.497,0.466,0.243,0.214,east,5.2,No
2015/06/19,10:00,0.525,0.303,0.543,0.495,0.469,0.244,0.216,east,5.5,No
2015/06/19,10:10,0.519,0.301,0.553,0.489,0.464,0.243,0.217,east,6.9,No
2015/06/19,10:20,0.521,0.300,0.548,0.494,0.464,0.243,0.215,east-southeast,6.9,No
2015/06/19,10:30,0.528,0.299,0.542,0.494,0.467,0.243,0.215,east,6.8,No
2015/06/19,10:40,0.524,0.301,0.548,0.492,0.471,0.243,0.218,east,7.2,No
2015/06/19,10:50,0.519,0.302,0.548,0.491,0.467,0.242,0.215,east,6.8,No
2015/06/19,11:00,0.525,0.300,0.547,0.496,0.464,0.243,0.215,east,6.6,No
2015/06/19,11:10,0.526,0.299,0.542,0.493,0.469,0.243,0.217,east,3.7,No
2015/06/19,11:20,0.523,0.303,0.551,0.489,0.468,0.242,0.218,east,2.4,No
2015/06/19,11:30,0.520,0.302,0.549,0.495,0.466,0.243,0.217,east,7.2,No
2015/06/19,11:40,0.528,0.301,0.545,0.498,0.462,0.243,0.216,east,6.9,No
2015/06/19,11:50,0.525,0.301,0.545,0.491,0.469,0.242,0.218,east,7.6,No
2015/06/19,12:00,0.520,0.303,0.553,0.491,0.471,0.242,0.216,east,8.1,No
2015/06/19,12:10,0.525,0.300,0.547,0.499,0.467,0.242,0.216,east,7.8,No
2015/06/19,12:20,0.528,0.300,0.545,0.496,0.465,0.244,0.218,east,8.0,No
2015/06/19,12:30,0.525,0.301,0.552,0.490,0.473,0.241,0.216,east-southeast,6.7,No
2015/06/19,12:40,0.521,0.303,0.551,0.494,0.470,0.244,0.215,east-southeast,6.3,No
2015/06/19,12:50,0.527,0.300,0.545,0.496,0.466,0.244,0.218,east-southeast,5.6,No
2015/06/19,13:00,0.524,0.301,0.554,0.493,0.471,0.242,0.216,southeast,3.5,No
2015/06/19,13:10,0.524,0.302,0.552,0.494,0.471,0.244,0.217,south-southeast,4.5,No
2015/06/19,13:20,0.529,0.300,0.545,0.499,0.464,0.243,0.217,south,4.2,No
2015/06/19,13:30,0.523,0.302,0.553,0.491,0.470,0.243,0.215,south-southeast,1.4,No
2015/06/19,13:40,0.522,0.303,0.551,0.496,0.471,0.243,0.217,west,2.1,No
2015/06/19,13:50,0.528,0.301,0.546,0.498,0.466,0.243,0.217,west-northwest,2.3,Yes
2015/06/19,14:00,0.524,0.301,0.554,0.491,0.472,0.243,0.215,west-northwest,0.7,Yes
2015/06/19,14:10,0.521,0.304,0.551,0.497,0.472,0.244,0.217,east-northeast,3.0,Yes
2015/06/19,14:20,0.528,0.301,0.546,0.496,0.465,0.244,0.218,east,4.7,Yes
2015/06/19,14:30,0.522,0.305,0.552,0.493,0.473,0.244,0.218,east,4.6,Yes
2015/06/19,14:40,0.527,0.301,0.545,0.496,0.468,0.246,0.219,east,5.6,Yes
2015/06/19,14:50,0.525,0.305,0.552,0.493,0.469,0.246,0.218,east,4.4,Yes
2015/06/19,15:00,0.524,0.303,0.546,0.497,0.468,0.244,0.217,east-northeast,4.7,Yes
2015/06/19,15:10,0.523,0.301,0.545,0.489,0.466,0.244,0.217,east-northeast,3.6,Yes
2015/06/19,15:20,0.516,0.300,0.545,0.489,0.465,0.244,0.216,east-northeast,3.9,Yes
2015/06/19,15:30,0.521,0.300,0.538,0.487,0.462,0.243,0.217,northeast,3.7,Yes
2015/06/19,15:40,0.516,0.300,0.543,0.485,0.466,0.243,0.216,northeast,2.6,Yes
2015/06/19,15:50,0.519,0.299,0.537,0.487,0.461,0.242,0.216,northeast,3.4,Yes
2015/06/19,16:00,0.515,0.299,0.541,0.482,0.465,0.242,0.216,north-northeast,2.9,Yes
2015/06/19,16:10,0.516,0.296,0.537,0.485,0.459,0.241,0.213,north,7.8,Yes
2015/06/19,16:20,0.513,0.299,0.536,0.480,0.462,0.241,0.214,northwest,4.7,Yes
2015/06/19,16:30,0.513,0.296,0.535,0.482,0.461,0.241,0.213,north,3.0,Yes
2015/06/19,16:40,0.513,0.296,0.532,0.478,0.459,0.239,0.212,north,2.3,Yes
2015/06/19,16:50,0.512,0.297,0.534,0.480,0.461,0.241,0.212,north,2.7,Yes
2015/06/19,17:00,0.515,0.295,0.529,0.481,0.458,0.240,0.213,north,2.9,Yes
2015/06/19,17:10,0.509,0.297,0.535,0.480,0.462,0.239,0.210,north-northwest,3.5,Yes
2015/06/19,17:20,0.515,0.294,0.530,0.482,0.456,0.239,0.211,north-northwest,4.2,Yes
2015/06/19,17:30,0.510,0.295,0.532,0.477,0.464,0.239,0.209,north-northwest,4.0,Yes
2015/06/19,17:40,0.515,0.293,0.532,0.482,0.457,0.239,0.211,north-northwest,3.5,Yes
2015/06/19,17:50,0.510,0.296,0.529,0.478,0.462,0.238,0.210,north-northwest,3.9,Yes
2015/06/19,18:00,0.511,0.294,0.534,0.480,0.458,0.239,0.211,north-northwest,3.6,Yes
2015/06/19,18:10,0.512,0.295,0.530,0.477,0.461,0.238,0.209,north-northwest,3.6,Yes
2015/06/19,18:20,0.509,0.294,0.534,0.481,0.461,0.238,0.210,north,3.0,Yes
2015/06/19,18:30,0.514,0.295,0.530,0.478,0.459,0.238,0.209,north,3.1,Yes
2015/06/19,18:40,0.510,0.295,0.533,0.478,0.462,0.238,0.210,north-northeast,2.3,Yes
2015/06/19,18:50,0.516,0.296,0.530,0.478,0.460,0.238,0.209,north-northeast,2.2,Yes
2015/06/19,19:00,0.509,0.295,0.530,0.477,0.462,0.237,0.210,north-northeast,2.7,Yes
2015/06/19,19:10,0.512,0.293,0.532,0.478,0.457,0.239,0.210,north,3.2,Yes
2015/06/19,19:20,0.507,0.295,0.528,0.476,0.463,0.236,0.209,north,3.0,Yes
2015/06/19,19:30,0.511,0.293,0.531,0.480,0.456,0.237,0.208,north-northeast,3.1,Yes
2015/06/19,19:40,0.509,0.295,0.528,0.475,0.463,0.236,0.209,north,2.5,Yes
2015/06/19,19:50,0.509,0.291,0.531,0.479,0.458,0.237,0.208,north-northeast,2.2,Yes
2015/06/19,20:00,0.510,0.294,0.526,0.476,0.462,0.237,0.209,north-northwest,1.9,Yes
2015/06/19,20:10,0.508,0.293,0.533,0.479,0.458,0.236,0.208,north-northwest,1.7,Yes
2015/06/19,20:20,0.511,0.295,0.526,0.477,0.459,0.236,0.209,northwest,1.1,No
2015/06/19,20:30,0.507,0.292,0.531,0.477,0.460,0.236,0.208,northwest,0.9,No
2015/06/19,20:40,0.512,0.294,0.528,0.479,0.457,0.236,0.207,north-northwest,1.0,No
2015/06/19,20:50,0.508,0.292,0.530,0.473,0.462,0.235,0.207,north-northwest,0.6,No
2015/06/19,21:00,0.512,0.292,0.531,0.480,0.456,0.236,0.207,-,CALM,No
2015/06/19,21:10,0.509,0.293,0.527,0.476,0.463,0.235,0.207,north,0.7,No
2015/06/19,21:20,0.507,0.292,0.532,0.478,0.456,0.237,0.207,north-northwest,0.5,No
2015/06/19,21:30,0.510,0.293,0.527,0.474,0.461,0.237,0.207,northwest,0.7,No
2015/06/19,21:40,0.506,0.292,0.532,0.478,0.458,0.236,0.208,west-northwest,1.4,No
2015/06/19,21:50,0.512,0.292,0.527,0.476,0.460,0.236,0.208,north-northwest,1.6,No
2015/06/19,22:00,0.508,0.291,0.529,0.476,0.460,0.235,0.206,northwest,1.8,No
2015/06/19,22:10,0.512,0.292,0.530,0.476,0.457,0.236,0.208,north-northwest,1.3,No
2015/06/19,22:20,0.509,0.291,0.530,0.475,0.460,0.236,0.207,northwest,1.2,No
2015/06/19,22:30,0.511,0.294,0.532,0.481,0.457,0.237,0.208,north-northwest,1.1,No
2015/06/19,22:40,0.511,0.292,0.528,0.475,0.460,0.236,0.208,northwest,1.4,No
2015/06/19,22:50,0.510,0.294,0.532,0.479,0.458,0.237,0.208,-,CALM,No
2015/06/19,23:00,0.511,0.292,0.528,0.473,0.462,0.236,0.208,north-northwest,3.0,No
2015/06/19,23:10,0.507,0.293,0.533,0.480,0.458,0.237,0.208,north-northwest,3.7,No
2015/06/19,23:20,0.514,0.291,0.526,0.475,0.463,0.236,0.208,north-northwest,3.7,No
2015/06/19,23:30,0.507,0.294,0.533,0.480,0.457,0.236,0.208,north-northwest,4.3,No
2015/06/19,23:40,0.513,0.294,0.529,0.476,0.463,0.238,0.208,north-northwest,4.1,No
2015/06/19,23:50,0.508,0.293,0.531,0.478,0.457,0.235,0.207,north-northwest,4.2,No
